Stations météo

réclame
Mon MeteoGroup
Terschelling/Hoorn, Pays-Bas (6251): Température de l'air & dewpoint: 25.09.2020 18:00:00 - 01.10.2020 18:00:00 (CEST)Terschelling/Hoorn, Pays-Bas (6251): Température de l'air 5cm: 25.09.2020 18:00:00 - 01.10.2020 18:00:00 (CEST)Terschelling/Hoorn, Pays-Bas (6251): Vitesse du vent & gusts: 25.09.2020 18:00:00 - 01.10.2020 18:00:00 (CEST)Terschelling/Hoorn, Pays-Bas (6251): Direction du vent: 25.09.2020 18:00:00 - 01.10.2020 18:00:00 (CEST)Terschelling/Hoorn, Pays-Bas (6251): reduced air pressure: 25.09.2020 18:00:00 - 01.10.2020 18:00:00 (CEST)Terschelling/Hoorn, Pays-Bas (6251): visibility: 25.09.2020 18:00:00 - 01.10.2020 18:00:00 (CEST)Terschelling/Hoorn, Pays-Bas (6251): Quantités de précipitations: 25.09.2020 18:00:00 - 01.10.2020 18:00:00 (CEST)
Date & Time tt [°C] td [°C] tt 5cm [°C] ff [km/h] ff [knt] fx [km/h] fx [knt] dd ppp [hPa] vv [km] rr [mm]
01.10.2020 18:00:00 14,3 13,7 14,1 36 19 47 25 SSE 996,1 7 0,2
01.10.2020 17:00:00 14,3 13,7 14,2 36 19 47 25 SE 996,5 8 0,1
01.10.2020 16:00:00 14,2 13,6 14,2 36 19 47 25 SE 997,1 6 1,1
01.10.2020 15:00:00 14,4 13,4 14,3 32 18 47 25 SSE 997,6 7 0,2
01.10.2020 14:00:00 14,7 13,6 14,6 32 18 40 21 SE 998,1 10 0,0
01.10.2020 13:00:00 14,2 13,3 13,8 29 16 43 23 SE 998,7 7 0,9
01.10.2020 12:00:00 13,9 12,9 13,7 32 18 43 23 SE 999,4 9 0,3
01.10.2020 11:00:00 13,7 12,8 13,6 36 19 43 23 SE 1000,1 8 0,3
01.10.2020 10:00:00 13,8 13,1 13,7 32 18 40 21 SSE 1000,7 7 0,1
01.10.2020 09:00:00 14,1 13,4 13,9 32 18 43 23 SE 1001,2 8 0,1
01.10.2020 08:00:00 14,3 13,6 14,1 32 18 40 21 SE 1001,6 9 0,0
01.10.2020 07:00:00 14,7 14,2 14,5 25 14 36 19 SSE 1002,2 8 0,0
01.10.2020 06:00:00 14,9 14,4 14,7 29 16 36 19 SSE 1002,9 11 0,0
01.10.2020 05:00:00 15,1 14,7 14,9 25 14 32 18 SE 1003,5 10 0,0
01.10.2020 04:00:00 15,4 14,8 15,0 25 14 36 19 SSE 1004,2 10 0,0
01.10.2020 03:00:00 15,5 15,0 15,2 29 16 40 21 SSE 1005,1 10 0,0
01.10.2020 02:00:00 15,5 15,0 15,2 29 16 36 19 SE 1006,0 9 0,0
01.10.2020 01:00:00 15,7 14,9 15,4 25 14 36 19 SE 1006,9 10 0,0
01.10.2020 00:00:00 16,0 15,1 15,7 29 16 36 19 SSE 1007,5 10 0,0
30.09.2020 23:00:00 15,8 15,1 15,4 25 14 32 18 SSE 1008,1 13 0,0
30.09.2020 22:00:00 15,8 15,1 15,4 25 14 36 19 SSE 1008,6 12 0,0
30.09.2020 21:00:00 16,0 15,3 15,6 22 12 29 16 SSE 1009,0 11 0,0
30.09.2020 20:00:00 16,2 15,4 15,9 22 12 32 18 SSE 1009,4 12 0,2
30.09.2020 19:00:00 16,5 15,8 16,3 18 10 25 14 SSE 1009,6 10 0,0
30.09.2020 18:00:00 16,6 15,5 16,4 18 10 32 18 SSE 1009,9 12 0,0
30.09.2020 17:00:00 17,1 15,4 17,6 25 14 36 19 S 1010,3 18 0,0
30.09.2020 16:00:00 16,6 14,9 17,2 25 14 40 21 S 1010,8 32 0,0
30.09.2020 15:00:00 16,5 14,9 17,3 29 16 40 21 S 1011,3 34 0,0
30.09.2020 14:00:00 16,3 14,6 16,5 29 16 40 21 S 1011,7 24 0,0
30.09.2020 13:00:00 15,3 14,3 15,2 29 16 36 19 S 1012,6 12 0,0
30.09.2020 12:00:00 15,4 14,2 16,2 25 14 36 19 S 1012,7 7 0,0
30.09.2020 11:00:00 14,8 14,0 14,9 25 14 36 19 S 1013,1 7 0,0
30.09.2020 10:00:00 14,8 14,3 15,0 29 16 36 19 S 1013,4 4,9 0,0
30.09.2020 09:00:00 14,3 14,0 14,4 25 14 32 18 S 1013,1 5 0,0
30.09.2020 08:00:00 14,0 13,6 13,5 22 12 29 16 SSW 1013,1 9 0,0
30.09.2020 07:00:00 14,2 14,0 13,8 22 12 29 16 SSW 1013,1 7 0,0
30.09.2020 06:00:00 14,5 14,0 14,0 22 12 29 16 S 1013,2 11 0,0
30.09.2020 05:00:00 14,5 14,3 14,3 22 12 32 18 SSW 1013,5 6 0,0
30.09.2020 04:00:00 14,7 14,2 14,3 22 12 29 16 S 1013,7 8 0,0
30.09.2020 03:00:00 14,7 13,4 14,1 22 12 25 14 SSE 1014,1 15 0,0
30.09.2020 02:00:00 14,7 13,6 14,5 18 10 29 16 SSE 1014,5 19 0,0
30.09.2020 01:00:00 14,6 13,1 14,1 18 10 22 12 SE 1014,8 25 0,0
30.09.2020 00:00:00 14,7 13,5 14,4 14 8 18 10 SE 1015,2 20 0,0
29.09.2020 23:00:00 14,7 13,7 14,2 11 6 14 8 SE 1015,7 21 0,0
29.09.2020 22:00:00 14,6 13,5 14,1 7 4 11 6 S 1015,9 34 0,0
29.09.2020 21:00:00 14,1 13,0 13,8 4 2 7 4 WSW 1015,8 32 0,0
29.09.2020 20:00:00 14,0 13,4 13,8 4 2 4 2 WSW 1015,6 31 0,0
29.09.2020 19:00:00 15,4 13,7 15,3 4 2 11 6 WNW 1015,5 37 0,0
29.09.2020 18:00:00 15,7 13,0 16,0 11 6 14 8 WNW 1015,3 38 0,0
29.09.2020 17:00:00 16,0 12,8 16,7 7 4 14 8 WNW 1015,0 28 0,0
29.09.2020 16:00:00 15,9 12,9 16,2 11 6 22 12 NW 1015,1 37 0,0
29.09.2020 15:00:00 16,4 12,8 18,1 18 10 25 14 WNW 1014,8 31 0,0
29.09.2020 14:00:00 16,6 13,2 18,4 18 10 25 14 WNW 1014,8 37 0,0
29.09.2020 13:00:00 17,2 14,6 16,8 18 10 25 14 WNW 1014,6 32 0,0
29.09.2020 12:00:00 16,0 14,2 16,3 18 10 29 16 NW 1014,4 31 0,0
29.09.2020 11:00:00 15,6 14,5 15,3 14 8 25 14 NW 1014,0 29 0,0
29.09.2020 10:00:00 15,6 14,8 15,3 18 10 25 14 NW 1013,3 24 0,0
29.09.2020 09:00:00 15,2 14,9 15,0 18 10 32 18 NW 1012,8 14 0,2
29.09.2020 08:00:00 15,1 15,0 14,8 25 14 32 18 NW 1012,2 10 0,1
29.09.2020 07:00:00 15,3 15,3 15,2 18 10 25 14 NW 1011,7 7 0,0
29.09.2020 06:00:00 15,8 15,7 15,5 14 8 22 12 WNW 1011,4 16 0,0
29.09.2020 05:00:00 15,8 15,8 15,6 14 8 22 12 NW 1011,1 8 1,7
29.09.2020 04:00:00 15,9 15,9 15,8 14 8 18 10 NW 1011,1 3,0 0,5
29.09.2020 03:00:00 15,9 15,9 15,9 14 8 22 12 NW 1010,8 1,6 0,4
29.09.2020 02:00:00 15,7 15,7 15,5 4 2 22 12 SW 1010,6 3,5 0,0
29.09.2020 01:00:00 14,9 14,9 14,9 18 10 22 12 S 1010,8 5 0,0
29.09.2020 00:00:00 15,1 15,1 15,1 14 8 22 12 S 1010,8 3,2 0,0
28.09.2020 23:00:00 15,0 15,0 15,1 14 8 22 12 SSW 1010,7 2,0 0,2
28.09.2020 22:00:00 15,1 15,1 15,1 14 8 22 12 SSW 1010,4 1,7 0,4
28.09.2020 21:00:00 15,1 15,1 15,1 18 10 22 12 SSW 1010,2 2,3 1,6
28.09.2020 20:00:00 15,3 15,3 15,4 11 6 14 8 SSW 1009,7 2,2 1,8
28.09.2020 19:00:00 15,8 15,8 15,7 11 6 14 8 SW 1009,3 3,8 0,0
28.09.2020 18:00:00 15,8 15,8 16,1 11 6 14 8 SW 1008,7 3,4 0,0
28.09.2020 17:00:00 17,0 16,0 17,2 4 2 18 10 SSE 1008,4 13 0,0
28.09.2020 16:00:00 17,6 16,5 17,5 14 8 22 12 ESE 1008,1 11 0,0
28.09.2020 15:00:00 17,7 16,8 18,1 14 8 22 12 E 1008,0 14 0,0
28.09.2020 14:00:00 17,7 16,8 18,5 11 6 25 14 ESE 1008,2 11 0,0
28.09.2020 13:00:00 17,6 16,7 17,6 18 10 25 14 NE 1008,1 10 0,0
28.09.2020 12:00:00 18,3 17,7 18,2 14 8 25 14 NE 1007,7 10 0,0
28.09.2020 11:00:00 16,8 16,8 16,8 11 6 22 12 NNE 1007,7 4,7 0,0
28.09.2020 10:00:00 16,8 16,7 16,7 14 8 18 10 NE 1007,5 7 0,0
28.09.2020 09:00:00 16,7 16,5 16,5 14 8 22 12 NNE 1007,1 8 0,0
28.09.2020 08:00:00 16,6 16,5 16,4 14 8 22 12 NNE 1006,9 8 0,0
28.09.2020 07:00:00 16,7 16,6 16,4 14 8 22 12 NNE 1006,7 7 0,0
28.09.2020 06:00:00 16,8 16,7 16,5 14 8 22 12 N 1006,6 8 0,0
28.09.2020 05:00:00 16,8 16,8 16,5 14 8 22 12 N 1006,6 7 0,0
28.09.2020 04:00:00 16,9 16,9 16,6 14 8 25 14 NNE 1006,6 7 0,0
28.09.2020 03:00:00 17,0 16,9 16,5 18 10 29 16 N 1006,8 8 0,0
28.09.2020 02:00:00 16,9 16,9 16,6 18 10 29 16 N 1006,9 7 0,0
28.09.2020 01:00:00 16,7 16,7 16,4 14 8 22 12 N 1007,2 6 0,0
28.09.2020 00:00:00 14,9 14,9 14,7 7 4 11 6 WNW 1007,3 4,9 0,0
27.09.2020 23:00:00 14,3 14,3 14,3 4 2 11 6 W 1007,7 6 0,4
27.09.2020 22:00:00 14,1 14,1 14,1 4 2 7 4 SW 1007,6 10 0,0
27.09.2020 21:00:00 14,1 14,1 14,2 4 2 11 6 SSE 1007,2 9 0,0
27.09.2020 20:00:00 14,6 14,4 14,6 7 4 11 6 ESE 1007,0 12 0,0
27.09.2020 19:00:00 15,3 15,3 15,3 4 2 7 4 N 1006,5 8 0,0
27.09.2020 18:00:00 15,0 14,8 15,2 7 4 11 6 NNW 1006,0 9 0,0
27.09.2020 17:00:00 14,7 14,5 15,0 7 4 11 6 NNW 1005,6 5 0,0
27.09.2020 16:00:00 14,4 13,8 14,8 4 2 11 6 WNW 1005,3 9 0,0
27.09.2020 15:00:00 14,1 13,7 14,3 11 6 14 8 E 1005,3 8 0,2
27.09.2020 14:00:00 15,0 13,2 15,4 11 6 22 12 ESE 1004,9 13 0,0
27.09.2020 13:00:00 16,6 14,5 17,5 14 8 18 10 ENE 1004,5 17 0,0
27.09.2020 12:00:00 15,6 13,8 16,0 14 8 22 12 E 1004,4 14 0,0
27.09.2020 11:00:00 15,1 13,6 15,6 18 10 25 14 E 1003,7 17 0,0
27.09.2020 10:00:00 15,4 14,2 15,5 22 12 29 16 ENE 1003,0 11 0,0
27.09.2020 09:00:00 15,2 14,2 15,2 22 12 47 25 ENE 1002,0 10 0,0
27.09.2020 08:00:00 16,7 16,0 16,2 36 19 54 29 NNE 1000,9 8 0,0
27.09.2020 07:00:00 16,8 16,0 16,3 36 19 54 29 NNE 1000,2 8 0,0
27.09.2020 06:00:00 16,6 16,1 16,2 36 19 58 31 NNE 999,6 7 0,1
27.09.2020 05:00:00 15,9 15,9 15,7 40 21 65 35 NNE 999,1 3,5 0,4
27.09.2020 04:00:00 15,6 15,3 15,4 47 25 68 37 NNE 998,3 3,7 0,1
27.09.2020 03:00:00 15,3 14,9 15,0 43 23 72 39 NNE 998,5 3,9 1,2
27.09.2020 02:00:00 15,0 13,9 14,4 47 25 68 37 NNE 998,3 4,6 1,1
27.09.2020 01:00:00 15,0 13,2 14,2 43 23 68 37 N 998,5 10 0,3
27.09.2020 00:00:00 14,2 13,3 13,7 43 23 68 37 N 999,0 8 0,3
26.09.2020 23:00:00 13,9 12,2 13,4 40 21 65 35 N 999,8 11 0,0
26.09.2020 22:00:00 13,2 11,4 12,7 36 19 58 31 N 1001,0 8 0,1
26.09.2020 21:00:00 13,5 10,5 13,0 32 18 58 31 N 1001,3 26 0,0
26.09.2020 20:00:00 14,1 10,0 13,4 36 19 58 31 N 1001,5 23 0,0
26.09.2020 19:00:00 14,4 10,7 13,7 36 19 54 29 N 1001,4 17 0,0
26.09.2020 18:00:00 14,1 12,8 13,6 32 18 47 25 NNE 1000,9 13 0,7
26.09.2020 17:00:00 14,4 12,7 14,5 25 14 36 19 NNE 1000,9 18 0,0
26.09.2020 16:00:00 15,4 12,4 15,5 14 8 25 14 N 1000,5 21 0,0
26.09.2020 15:00:00 13,7 11,9 13,6 7 4 25 14 NE 1000,6 10 1,6
26.09.2020 14:00:00 15,2 10,5 14,9 7 4 22 12 N 1000,0 29 0,0
26.09.2020 13:00:00 16,8 10,9 16,9 11 6 22 12 N 999,6 43 0,0
26.09.2020 12:00:00 15,0 10,0 15,0 11 6 18 10 NNE 999,3 34 0,0
26.09.2020 11:00:00 15,1 10,4 15,5 11 6 18 10 NNE 999,0 25 0,0
26.09.2020 10:00:00 15,2 11,3 15,5 4 2 7 4 NE 998,5 14 0,0
26.09.2020 09:00:00 12,2 11,7 11,3 4 2 11 6 NNW 997,8 15 0,0
26.09.2020 08:00:00 11,1 9,7 10,2 11 6 29 16 NNW 997,3 7 1,3
26.09.2020 07:00:00 7,6 7,3 6,0 7 4 11 6 NNW 997,0 17 0,0
26.09.2020 06:00:00 7,1 6,9 3,7 4 2 7 4 WSW 996,6 9 0,0
26.09.2020 05:00:00 5,4 5,2 3,6 4 2 7 4 E 996,8 6 0,0
26.09.2020 04:00:00 6,6 6,4 3,4 7 4 14 8 NE 996,4 10 0,0
26.09.2020 03:00:00 7,8 7,0 6,0 14 8 22 12 NE 995,8 19 0,0
26.09.2020 02:00:00 8,2 7,1 7,5 18 10 29 16 ENE 995,6 27 0,0
26.09.2020 01:00:00 9,8 8,0 9,3 18 10 25 14 ENE 995,4 42 0,0
26.09.2020 00:00:00 10,9 9,0 10,7 14 8 29 16 ENE 995,1 48 0,0
25.09.2020 23:00:00 11,1 8,4 10,1 22 12 32 18 E 994,4 47 0,0
25.09.2020 22:00:00 11,3 8,3 10,6 25 14 36 19 E 993,9 32 0,0
25.09.2020 21:00:00 12,0 8,3 11,7 29 16 43 23 ESE 993,0 47 0,0
25.09.2020 20:00:00 12,7 8,7 12,1 29 16 47 25 SE 992,4 44 0,0
25.09.2020 19:00:00 12,6 8,7 12,1 32 18 54 29 SE 991,8 41 0,0
25.09.2020 18:00:00 13,2 8,6 12,9 43 23 54 29 SSE 991,5 32 0,0

tt = Température de l'air
td = dewpoint
tt 5cm = Température de l'air 5cm
ff = Vitesse du vent
fx = gusts
dd = Direction du vent
ppp = reduced air pressure
vv = visibility
rr = Quantités de précipitations

stations d'obs. à proximité